Flag for Canada Weather past 2 weeks in Eureka, Nunavut Territory, Canada

Now
-18 °F

Sunny.


Feels Like: -18 °F
Forecast: -31 / -17 °F
Wind: 2 mph from East

Location: Eureka

Current Time: Mar 31, 2015 at 1:49:24 PM

Latest Report: Mar 31, 2015 at 1:00 PM


Visibility: 15 mi

Pressure: 30.17 "Hg

Humidity: 51%

Dew point: -31 °F

Location of EurekaLocation

Historic Weather in Eureka — Graph

°F

Eureka temperature yesterday

Maximum temperature yesterday: -11 °F (at 2:00 PM)
Minimum temperature yesterday: -27 °F (at 4:00 AM)
Average temperature yesterday: -16 °F

Past Weeks' High & Low Weather Summary

 TemperatureHumidityPressure
High-8 °F (Mar 29, 7:00 AM)83% (Mar 23, 4:00 AM)30.67 "Hg (Mar 23, 4:00 AM)
Low-45 °F (Mar 16, 1:00 PM)45% (Mar 30, 3:00 AM)29.56 "Hg (Mar 25, 4:00 PM)
Average-26 °F59%30.03 "Hg
* Reported Mar 16 1:00 PM — Mar 31 1:00 PM, Eureka, Weather by CustomWeather, © 2015

Note: Actual official high and low records may vary slightly from our data, if they occured in-between our weather recording intervals... More about our weather records

Advertising

Eureka weather history for previous 24 hours

 ConditionsComfort  
Time TempWeatherWind HumidityBarometerVisibility
1:00 PM
Tue, Mar 31
-18 °FSunny.2 mph51%30.17 "Hg15 mi
12:00 PM-22 °FSunny.2 mph56%30.16 "Hg15 mi
10:00 AM-22 °FSunny.3 mph56%30.12 "Hg15 mi
9:00 AM-24 °FPassing clouds.8 mph55%30.11 "Hg15 mi
8:00 AM-26 °FPassing clouds.7 mph55%30.09 "Hg15 mi
7:00 AM-26 °FPassing clouds.6 mph55%30.08 "Hg15 mi
6:00 AM-26 °FPassing clouds.3 mph55%30.06 "Hg15 mi
5:00 AM-26 °FPassing clouds.No wind55%30.04 "Hg15 mi
4:00 AM-22 °FPassing clouds.No wind56%30.02 "Hg15 mi
3:00 AM-20 °FPassing clouds.5 mph56%30.00 "Hg15 mi
2:00 AM-20 °FPassing clouds.8 mph56%29.97 "Hg15 mi
1:00 AM-18 °FPassing clouds.No wind51%29.95 "Hg15 mi
10:00 PM
Mon, Mar 30
-15 °FPartly cloudy.3 mph52%29.89 "Hg15 mi
9:00 PM-13 °FBroken clouds.5 mph52%29.87 "Hg15 mi
8:00 PM-13 °FBroken clouds.5 mph52%29.85 "Hg15 mi
7:00 PM-11 °FBroken clouds.10 mph52%29.84 "Hg15 mi
6:00 PM-13 °FPartly sunny.7 mph52%29.81 "Hg15 mi
5:00 PM-11 °FBroken clouds.8 mph52%29.80 "Hg15 mi
4:00 PM-11 °FBroken clouds.30 mph52%29.78 "Hg15 mi
3:00 PM-15 °FMostly cloudy.20 mph57%29.79 "Hg15 mi
2:00 PM-11 °FPartly sunny.16 mph52%29.78 "Hg15 mi
1:00 PM-15 °FBroken clouds.13 mph57%29.78 "Hg15 mi
Weather by CustomWeather, © 2015

See weather overviewHow to use our weather pages